Regional Weather Roundup
Issued by NWS

Home | Current Version | Previous Version | Graphics & Text | Print | Product List | Glossary On
Versions: 1 2 3 4 5 6 7 8 9 10 11 12 13 14 15 16 17 18 19 20 21 22 23 24 25 26 27 28 29 30 31 32 33 34 35 36 37 38 39 40 41 42 43 44 45 46 47 48 49 50
000
ASUS44 KMEG 250410
RWRTN
TENNESSEE HOURLY STATE WEATHER ROUNDUP
NATIONAL WEATHER SERVICE MEMPHIS TN
1000 PM CST SAT JAN 24 2015

TNZ002-004-019-021-049-052-054-088>092-250500-
WEST TENNESSEE

CITY           SKY/WX    TMP DP  RH WIND       PRES   REMARKS
MEMPHIS INTL   CLEAR     42  34  73 SW6       29.91F
NWS MEMPHIS      N/A     44 N/A N/A MISG        N/A
JACKSON        CLEAR     39  30  70 S8        29.90F WCI  33
DYERSBURG      CLEAR     43  23  45 S5        29.89F
UNION CITY     CLEAR     36  30  80 S6        29.85F WCI  31
PARIS          CLEAR     36  28  75 SW8       29.87F WCI  29
LEXINGTON      CLEAR     39  28  65 S7        29.90F WCI  34
SAVANNAH       CLEAR     39  30  70 S5        29.95S
$$

TNZ008-025-027-028-033-062-065-066-250500-
NORTH MIDDLE TENNESSEE

CITY           SKY/WX    TMP DP  RH WIND       PRES   REMARKS
NASHVILLE      CLEAR     37  31  78 S7        29.90F WCI  32
CLARKSVILLE    CLEAR     37  28  70 S8        29.87F WCI  31
SMYRNA         CLEAR     33  30  89 S5        29.93S WCI  28
COOKEVILLE     CLEAR     34  30  86 S6        29.90F WCI  29
CROSSVILLE     CLEAR     33  27  78 SW5       29.90F WCI  29
$$

TNZ061-075-076-078-094-096-097-250500-
SOUTH MIDDLE TENNESSEE

CITY           SKY/WX    TMP DP  RH WIND       PRES   REMARKS
FAYETTEVILLE   CLEAR     34  28  80 N13G30    29.95R WCI  25
TULLAHOMA      CLEAR     36  28  75 SW8       29.94R WCI  29
WINCHESTER     CLEAR     30  28  93 CALM      29.96R
MCMINNVILLE    CLEAR     36  30  80 SW5       29.92R WCI  32
COLUMBIA         N/A     37  36  93 SW7       29.91S WCI  32
SHELBYVILLE    CLEAR     36  30  80 S6        29.95R WCI  31
$$

TNZ017-018-042-046-047-250500-
NORTHEAST TENNESSEE

CITY           SKY/WX    TMP DP  RH WIND       PRES   REMARKS
TRI CITIES     CLOUDY    36  27  69 SW7       29.90R WCI  30
ELIZABETHTON   CLOUDY    34  25  69 W5        29.90R WCI  30
$$

TNZ012-013-036-069-073-074-250500-
CENTRAL EAST TENNESSEE

CITY           SKY/WX    TMP DP  RH WIND       PRES   REMARKS
KNOXVILLE      CLEAR     33  26  75 SW10      29.93F WCI  25
OAK RIDGE      CLEAR     33  28  81 CALM      29.95R
GATLINBURG     CLEAR     34  25  69 S3        29.93S
MORRISTOWN     CLEAR     36  27  69 SW7       29.91S WCI  30
$$

TNZ083-085-099-250500-
SOUTHEAST TENNESSEE

CITY           SKY/WX    TMP DP  RH WIND       PRES   REMARKS
CHATTANOOGA    CLEAR     38  29  70 CALM      29.96S
$$

SKY/WX REPORTED AS FAIR MEANS FEW OR NO CLOUDS BELOW
12 THOUSAND FEET.



USA.gov is the U.S. government's official web portal to all federal, state and local government web resources and services.